TimeEST,TemperatureF,Dew PointF,Humidity,Sea Level PressureIn,VisibilityMPH,Wind Direction,Wind SpeedMPH,Gust SpeedMPH,PrecipitationIn,Events,Conditions,WindDirDegrees,DateUTC
12:53 AM,70.0,64.9,84,30.12,10.0,Calm,Calm,-,N/A,,Clear,0,2012-11-28 05:53:00
1:53 AM,70.0,64.9,84,30.11,10.0,Calm,Calm,-,N/A,,Clear,0,2012-11-28 06:53:00
2:53 AM,69.1,64.0,84,30.09,10.0,Calm,Calm,-,N/A,,Clear,0,2012-11-28 07:53:00
3:53 AM,70.0,64.9,84,30.10,10.0,Calm,Calm,-,N/A,,Clear,0,2012-11-28 08:53:00
4:53 AM,70.0,64.9,84,30.10,10.0,North,3.5,-,N/A,,Clear,350,2012-11-28 09:53:00
5:53 AM,70.0,64.9,84,30.12,10.0,North,3.5,-,N/A,,Clear,350,2012-11-28 10:53:00
6:53 AM,70.0,64.9,84,30.13,10.0,North,3.5,-,N/A,,Clear,350,2012-11-28 11:53:00
7:53 AM,70.0,64.9,84,30.14,10.0,North,3.5,-,N/A,,Partly Cloudy,350,2012-11-28 12:53:00
8:53 AM,72.0,66.0,81,30.16,10.0,NNW,3.5,-,N/A,,Clear,340,2012-11-28 13:53:00
9:53 AM,72.0,66.0,81,30.19,10.0,North,8.1,-,N/A,,Clear,350,2012-11-28 14:53:00
10:53 AM,73.9,64.9,73,30.19,10.0,North,6.9,-,N/A,,Clear,10,2012-11-28 15:53:00
11:53 AM,73.9,66.0,76,30.17,10.0,North,8.1,-,N/A,,Clear,10,2012-11-28 16:53:00
12:53 PM,75.0,64.9,71,30.15,10.0,NNE,6.9,-,N/A,,Clear,30,2012-11-28 17:53:00
1:53 PM,75.0,66.0,73,30.13,10.0,Variable,4.6,-,N/A,,Clear,0,2012-11-28 18:53:00
2:53 PM,73.9,64.9,73,30.12,10.0,NW,6.9,-,N/A,,Clear,320,2012-11-28 19:53:00
3:53 PM,73.0,64.9,76,30.12,10.0,NNW,5.8,-,N/A,,Clear,330,2012-11-28 20:53:00
4:53 PM,71.1,64.9,81,30.13,10.0,North,4.6,-,N/A,,Clear,350,2012-11-28 21:53:00
5:53 PM,70.0,64.0,81,30.13,10.0,North,4.6,-,N/A,,Clear,350,2012-11-28 22:53:00
6:53 PM,70.0,64.0,81,30.14,10.0,Variable,3.5,-,N/A,,Clear,0,2012-11-28 23:53:00
7:53 PM,70.0,64.0,81,30.16,10.0,Variable,4.6,-,N/A,,Clear,0,2012-11-29 00:53:00
8:53 PM,70.0,64.0,81,30.17,10.0,North,3.5,-,N/A,,Clear,360,2012-11-29 01:53:00
9:53 PM,70.0,64.0,81,30.17,10.0,North,4.6,-,N/A,,Clear,360,2012-11-29 02:53:00
10:53 PM,70.0,63.0,78,30.16,10.0,NNE,10.4,-,N/A,,Partly Cloudy,20,2012-11-29 03:53:00
11:53 PM,70.0,63.0,78,30.14,10.0,NNE,12.7,-,N/A,,Clear,30,2012-11-29 04:53:00